Preview of NWS' New Version of Forecast
This preview is not operational and should not be used for support decisions.

Regional Weather Roundup (RWR)

Issued by National Weather Service (NWS)

                            
000
ASUS46 KPQR 212110
RWROR 

OREGON REGIONAL WEATHER ROUNDUP
NATIONAL WEATHER SERVICE PORTLAND OR
200 PM PDT SAT SEP 21 2019

NOTE: "FAIR" INDICATES FEW OR NO CLOUDS BELOW 12,000 FEET WITH
NO SIGNIFICANT WEATHER AND/OR OBSTRUCTIONS TO VISIBILITY.

ORZ001>013-212200-
NORTHWEST OREGON

  
CITY           SKY/WX    TMP DP  RH WIND       PRES   REMARKS
ASTORIA        CLOUDY    68  59  73 VRB5      30.09F                  
TILLAMOOK      CLOUDY    68  59  73 CALM      30.11F                  
NEWPORT        MOSUNNY   66  61  82 NW7       30.13F                  
PORTLAND       MOSUNNY   70  52  52 W5        30.11F                  
VANCOUVER WA   PTSUNNY   69  52  54 W7        30.10F                  
SCAPPOOSE      CLOUDY    66  56  70 SW5       30.10F                  
HILLSBORO      CLOUDY    66  53  63 CALM      30.11F                  
AURORA         MOSUNNY   70  53  54 NW6       30.11F                  
MCMINNVILLE    CLOUDY    67  54  63 W5        30.11F                  
SALEM          MOSUNNY   70  53  54 VRB3      30.09F                  
CORVALLIS      PTSUNNY   70  56  61 CALM      30.10F                  
EUGENE         MOSUNNY   71  55  56 VRB6      30.10F                  
CRESWELL       SUNNY     70  55  60 N8        30.08F                  
$$

ORZ021-028-212200-
SOUTHWEST OREGON

  
CITY           SKY/WX    TMP DP  RH WIND       PRES   REMARKS
NORTH BEND     SUNNY     69  60  73 NW13      30.10F                  
BROOKINGS      SUNNY     77  55  46 W8        30.01F                  
ROSEBURG       SUNNY     73  53  49 MISG      30.08F                  
SEXTON SUMMIT  SUNNY     62  51  67 VRB3      30.14F                  
GRANTS PASS    FAIR      73  50  43 CALM      30.10F                  
MEDFORD        SUNNY     71  49  45 VRB3      30.07F                  
$$

ORZ014>016-041-212200-
COLUMBIA GORGE

  
CITY           SKY/WX    TMP DP  RH WIND       PRES   REMARKS
TROUTDALE      SUNNY     71  51  49 CALM      30.10F                  
HOOD RIVER     SUNNY     72  50  46 NW15      30.05F                  
THE DALLES     SUNNY     74  51  44 CALM      30.02F                  
$$

ORZ029>031-041-044-049-050-061>064-502-503-505>511-212200-
EASTERN OREGON

  
CITY           SKY/WX    TMP DP  RH WIND       PRES   REMARKS
MADRAS         SUNNY     68  39  34 SW5       30.11F                  
REDMOND        SUNNY     70  39  32 NE5       30.10F                  
BEND           SUNNY     68  39  34 CALM      30.10F                  
PRINEVILLE     SUNNY     66  39  37 CALM      30.12S                  
KLAMATH FALLS  SUNNY     64  43  46 S3        30.14F                  
LAKEVIEW       SUNNY     64  40  41 VRB5      30.16F                  
HERMISTON      SUNNY     76  47  35 SW7G16    30.03F                  
PENDLETON      SUNNY     73  45  36 W9        30.05F                  
JOHN DAY       SUNNY     67  38  34 NW5       30.12F                  
MEACHAM        SUNNY     64  45  49 CALM      30.11F                  
LA GRANDE      SUNNY     68  45  43 CALM      30.09F                  
BAKER CITY     SUNNY     71  42  35 CALM      30.11F                  
BURNS          SUNNY     64  40  41 VRB3      30.16F                  
ROME             N/A     64  39  39 VRB6      30.14F                  
ONTARIO        SUNNY     72  43  35 S3        30.11F                  
$$